| time (UTC) | temp F | wind direction | speed knots | gust knots | rain 1hr in | rain 24hr in | rain mn in | humidity % | barometer mb |
| 20260504034017 | 64 | 186 | 0.0 | 1.7 | 0.00 | 0.15 | 0.15 | 66 | 1017.4 |
| 20260504033017 | 64 | 179 | 0.9 | 1.7 | 0.00 | 0.15 | 0.15 | 64 | 1017.4 |
| 20260504032037 | 64 | 161 | 0.9 | 1.7 | 0.00 | 0.15 | 0.15 | 64 | 1017.5 |
| 20260504031017 | 63 | 124 | 0.9 | 2.6 | 0.00 | 0.15 | 0.15 | 65 | 1017.4 |
| 20260504030017 | 63 | 359 | 0.9 | 2.6 | 0.00 | 0.15 | 0.15 | 69 | 1017.4 |
| 20260504025017 | 64 | 16 | 0.9 | 2.6 | 0.00 | 0.15 | 0.15 | 64 | 1017.3 |
| 20260504024017 | 65 | 13 | 0.9 | 4.3 | 0.00 | 0.15 | 0.15 | 64 | 1017.4 |
| 20260504023017 | 65 | 31 | 0.0 | 1.7 | 0.00 | 0.15 | 0.15 | 62 | 1017.2 |
| 20260504022018 | 67 | 237 | 0.9 | 3.5 | 0.00 | 0.15 | 0.15 | 58 | 1017.2 |
| 20260504021018 | 67 | 38 | 0.9 | 3.5 | 0.00 | 0.15 | 0.15 | 57 | 1017.4 |
| 20260504020018 | 68 | 230 | 0.9 | 3.5 | 0.00 | 0.15 | 0.15 | 55 | 1017.3 |
| 20260504015019 | 69 | 36 | 0.9 | 2.6 | 0.00 | 0.15 | 0.15 | 55 | 1017.1 |
| 20260504014018 | 70 | 191 | 1.7 | 3.5 | 0.00 | 0.15 | 0.15 | 49 | 1017.2 |
| 20260504013016 | 71 | 200 | 2.6 | 3.5 | 0.00 | 0.15 | 0.15 | 48 | 1017.1 |
| 20260504012016 | 71 | 181 | 2.6 | 3.5 | 0.00 | 0.15 | 0.15 | 48 | 1016.9 |
| 20260504011016 | 72 | 183 | 2.6 | 4.3 | 0.00 | 0.15 | 0.15 | 47 | 1016.8 |
| 20260504010017 | 72 | 175 | 2.6 | 4.3 | 0.00 | 0.15 | 0.15 | 46 | 1016.9 |
| 20260504005017 | 73 | 176 | 4.3 | 7.0 | 0.00 | 0.15 | 0.15 | 45 | 1016.9 |
| 20260504004017 | 73 | 169 | 3.5 | 7.0 | 0.00 | 0.15 | 0.15 | 45 | 1017.0 |
| 20260504003017 | 73 | 172 | 5.2 | 9.6 | 0.00 | 0.15 | 0.15 | 44 | 1017.0 |
| 20260504002017 | 74 | 167 | 5.2 | 9.6 | 0.00 | 0.15 | 0.15 | 43 | 1017.1 |
| 20260504001017 | 74 | 175 | 5.2 | 9.6 | 0.00 | 0.15 | 0.15 | 42 | 1017.1 |
| 20260504000037 | 75 | 167 | 6.1 | 9.6 | 0.00 | 0.15 | 0.15 | 41 | 1017.1 |
| 20260503235037 | 75 | 172 | 6.1 | 9.6 | 0.00 | 0.15 | 0.15 | 41 | 1017.2 |
| 20260503234018 | 75 | 178 | 4.3 | 7.8 | 0.00 | 0.15 | 0.15 | 41 | 1017.3 |
| 20260503233018 | 76 | 211 | 6.1 | 11.3 | 0.00 | 0.15 | 0.15 | 39 | 1017.4 |
| 20260503232018 | 76 | 197 | 7.0 | 10.4 | 0.02 | 0.15 | 0.15 | 39 | 1017.5 |
| 20260503231018 | 76 | 200 | 7.0 | 11.3 | 0.04 | 0.15 | 0.15 | 37 | 1017.5 |
| 20260503230016 | 76 | 206 | 9.6 | 13.0 | 0.07 | 0.15 | 0.15 | 35 | 1017.5 |
| 20260503225016 | 76 | 175 | 6.1 | 10.4 | 0.09 | 0.15 | 0.15 | 37 | 1017.6 |
| 20260503224016 | 76 | 170 | 7.0 | 14.8 | 0.15 | 0.15 | 0.15 | 36 | 1017.6 |
| 20260503223016 | 76 | 164 | 7.0 | 10.4 | 0.15 | 0.15 | 0.15 | 34 | 1017.6 |
| 20260503222016 | 76 | 182 | 8.7 | 13.9 | 0.13 | 0.13 | 0.13 | 36 | 1017.6 |
| 20260503221056 | 76 | 197 | 7.8 | 15.6 | 0.11 | 0.11 | 0.11 | 35 | 1017.7 |
| 20260503220017 | 76 | 143 | 7.0 | 11.3 | 0.08 | 0.08 | 0.08 | 35 | 1017.9 |
| 20260503215037 | 76 | 169 | 6.1 | 11.3 | 0.06 | 0.06 | 0.06 | 35 | 1018.1 |
| 20260503214017 | 77 | 183 | 5.2 | 10.4 | 0.00 | 0.00 | 0.00 | 35 | 1018.4 |
| 20260503213017 | 77 | 179 | 6.1 | 10.4 | 0.00 | 0.00 | 0.00 | 35 | 1018.6 |
| 20260503212017 | 76 | 186 | 6.1 | 10.4 | 0.00 | 0.00 | 0.00 | 33 | 1018.8 |
| 20260503211037 | 77 | 177 | 7.0 | 13.0 | 0.00 | 0.00 | 0.00 | 33 | 1018.9 |
| 20260503210018 | 76 | 184 | 7.0 | 12.2 | 0.00 | 0.00 | 0.00 | 33 | 1019.1 |
| 20260503205018 | 76 | 170 | 7.8 | 12.2 | 0.00 | 0.00 | 0.00 | 34 | 1019.2 |
| 20260503204018 | 76 | 168 | 7.8 | 11.3 | 0.00 | 0.00 | 0.00 | 35 | 1019.5 |
| 20260503203018 | 76 | 200 | 8.7 | 12.2 | 0.00 | 0.00 | 0.00 | 36 | 1019.8 |
| 20260503202019 | 76 | 157 | 7.0 | 11.3 | 0.00 | 0.00 | 0.00 | 34 | 1019.9 |
| 20260503201056 | 76 | 176 | 6.1 | 12.2 | 0.00 | 0.00 | 0.00 | 36 | 1020.1 |
| 20260503200036 | 76 | 183 | 7.8 | 13.0 | 0.00 | 0.00 | 0.00 | 37 | 1020.2 |
| 20260503195016 | 75 | 225 | 5.2 | 7.8 | 0.00 | 0.00 | 0.00 | 38 | 1020.3 |
| 20260503194016 | 75 | 170 | 6.1 | 11.3 | 0.00 | 0.00 | 0.00 | 38 | 1020.6 |
| 20260503193017 | 75 | 165 | 4.3 | 12.2 | 0.00 | 0.00 | 0.00 | 38 | 1020.7 |
| 20260503192016 | 76 | 171 | 6.1 | 9.6 | 0.00 | 0.00 | 0.00 | 37 | 1020.9 |
| 20260503191017 | 75 | 195 | 5.2 | 9.6 | 0.00 | 0.00 | 0.00 | 39 | 1020.8 |
| 20260503190017 | 74 | 208 | 6.1 | 11.3 | 0.00 | 0.00 | 0.00 | 39 | 1021.0 |
| 20260503185037 | 74 | 174 | 6.1 | 12.2 | 0.00 | 0.00 | 0.00 | 37 | 1021.2 |
| 20260503184017 | 74 | 145 | 7.8 | 12.2 | 0.00 | 0.00 | 0.00 | 40 | 1021.2 |
| 20260503183037 | 74 | 185 | 4.3 | 13.0 | 0.00 | 0.00 | 0.00 | 40 | 1021.5 |
| 20260503182018 | 74 | 136 | 3.5 | 7.0 | 0.00 | 0.00 | 0.00 | 41 | 1021.7 |
| 20260503181017 | 73 | 141 | 3.5 | 8.7 | 0.00 | 0.00 | 0.00 | 40 | 1021.9 |
| 20260503180018 | 73 | 140 | 5.2 | 11.3 | 0.00 | 0.00 | 0.00 | 41 | 1022.0 |
| 20260503175018 | 73 | 156 | 7.8 | 13.0 | 0.00 | 0.00 | 0.00 | 43 | 1022.3 |
| 20260503174018 | 73 | 217 | 4.3 | 10.4 | 0.00 | 0.00 | 0.00 | 44 | 1022.7 |
| 20260503173018 | 72 | 172 | 7.8 | 13.0 | 0.00 | 0.00 | 0.00 | 45 | 1022.8 |
| 20260503172019 | 72 | 124 | 5.2 | 8.7 | 0.00 | 0.00 | 0.00 | 46 | 1022.9 |
| 20260503171016 | 72 | 154 | 6.1 | 11.3 | 0.00 | 0.00 | 0.00 | 44 | 1023.1 |
| 20260503131017 | 51 | 296 | 0.9 | 2.6 | 0.00 | 0.00 | 0.00 | 94 | 1023.1 |
| 20260503081016 | 49 | 318 | 0.0 | 0.9 | 0.00 | 0.00 | 0.00 | 93 | 1021.7 |
| 20260503072017 | 51 | 311 | 0.9 | 2.6 | 0.00 | 0.00 | 0.00 | 92 | 1022.5 |
| 20260503071018 | 51 | 289 | 0.0 | 0.9 | 0.00 | 0.00 | 0.00 | 92 | 1022.4 |
| 20260503055016 | 52 | 221 | 0.0 | 0.9 | 0.00 | 0.00 | 0.00 | 88 | 1022.6 |
| 20260503054016 | 53 | 50 | 0.0 | 0.9 | 0.00 | 0.00 | 0.00 | 87 | 1022.6 |
| 20260503053016 | 53 | 52 | 0.0 | 0.9 | 0.00 | 0.00 | 0.00 | 87 | 1022.6 |
| 20260503052017 | 53 | 7 | 0.0 | 1.7 | 0.00 | 0.00 | 0.00 | 86 | 1022.6 |
| 20260503051017 | 54 | 356 | 0.0 | 0.9 | 0.00 | 0.00 | 0.00 | 86 | 1022.4 |
| 20260503045017 | 55 | 14 | 0.0 | 0.9 | 0.00 | 0.00 | 0.00 | 84 | 1022.4 |
| 20260503044017 | 55 | 39 | 0.9 | 1.7 | 0.00 | 0.00 | 0.00 | 83 | 1022.4 |
| 20260503043017 | 55 | 15 | 0.0 | 1.7 | 0.00 | 0.00 | 0.00 | 83 | 1022.3 |
| 20260503042018 | 56 | 277 | 0.0 | 0.9 | 0.00 | 0.00 | 0.00 | 81 | 1022.3 |
| 20260503041018 | 56 | 30 | 0.9 | 2.6 | 0.00 | 0.00 | 0.00 | 79 | 1022.3 |
| 20260503040019 | 57 | 39 | 0.0 | 0.9 | 0.00 | 0.00 | 0.00 | 78 | 1022.3 |
| 20260503035039 | 57 | 353 | 0.9 | 1.7 | 0.00 | 0.00 | 0.00 | 76 | 1022.0 |